Danville, IN

2:58 PM EST on November 20, 2017 (GMT -0500)
Vermilion County

Weather History for KDNV - July, 2013

Change the Weather History Date:

Saturday, July 20, 2013

  Actual Average (KLAF) Record (KLAF)
Temperature  
Mean Temperature 80 °F -  
Max Temperature 93 °F 87 °F 103 °F (1980)
Min Temperature 68 °F 67 °F 52 °F (1971)
Cooling Degree Days 16    
Growing Degree Days 30 (Base 50)    
Moisture  
Dew Point 72 °F    
Average Humidity 79    
Maximum Humidity 91    
Minimum Humidity 53    
Precipitation  
Precipitation 0.65 in - - ()
Sea Level Pressure  
Sea Level Pressure 29.86 in    
Wind  
Wind Speed 7 mph (SSW)    
Max Wind Speed 13 mph    
Max Gust Speed 18 mph    
Visibility 6 miles    
Events Rain    
Averages and records for this station are not official NWS values.
T = Trace of Precipitation, MM = Missing Value Source: NWS Daily Summary

Daily Weather History Graph

Daily Weather History Graph

Search for Another Location

Airport or City:

Trip Planner

Search our weather history database for the weather conditions in past years. The results will help you decide how hot, cold, wet, or windy it might be!

Date:

Astronomy

Jul. 20, 2013 Rise Set
Actual Time 5:37 AM CDT 8:15 PM CDT
Civil Twilight 5:06 AM CDT 8:46 PM CDT
Nautical Twilight 4:26 AM CDT 9:25 PM CDT
Astronomical Twilight 3:42 AM CDT 10:10 PM CDT
Moon 6:18 PM CDT 3:17 AM CDT
Length of Visible Light 15h 40m
Length of Day
14h 37m
Waxing Gibbous, 94% of the Moon is Illuminated
Jul 20
Waxing Gibbous
Jul 22
Full
Jul 29
Last Quarter
Aug 6
New
Aug 14
First Quarter

Hourly Weather History & Observations

Time (CDT) Temp. Heat Index Dew Point Humidity Pressure Visibility Wind Dir Wind Speed Gust Speed Precip Events Conditions
12:15 AM 80.4 °F 84.4 °F 71.8 °F 75% 29.86 in 7.0 mi SW 9.2 mph 17.3 mph N/A   Clear
12:35 AM 80.1 °F 83.7 °F 71.6 °F 75% 29.85 in 7.0 mi SW 11.5 mph 17.3 mph N/A   Clear
12:55 AM 80.1 °F 83.7 °F 71.6 °F 75% 29.85 in 7.0 mi SW 10.4 mph 18.4 mph N/A   Clear
1:15 AM 79.7 °F - 71.6 °F 76% 29.85 in 7.0 mi SW 11.5 mph 17.3 mph N/A   Clear
1:35 AM 79.7 °F - 71.6 °F 76% 29.85 in 7.0 mi SW 10.4 mph 17.3 mph N/A   Clear
1:55 AM 79.7 °F - 71.1 °F 75% 29.84 in 7.0 mi SW 11.5 mph 16.1 mph N/A   Scattered Clouds
2:15 AM 79.2 °F - 70.7 °F 75% 29.84 in 7.0 mi SW 10.4 mph 17.3 mph N/A   Clear
2:35 AM 79.0 °F - 70.7 °F 76% 29.83 in 7.0 mi SW 10.4 mph - N/A   Scattered Clouds
2:55 AM 79.0 °F - 70.7 °F 76% 29.83 in 7.0 mi SW 12.7 mph 18.4 mph N/A   Clear
3:15 AM 78.8 °F - 70.7 °F 76% 29.82 in 7.0 mi SW 9.2 mph - N/A   Clear
3:35 AM 78.1 °F - 70.5 °F 77% 29.82 in 7.0 mi SW 9.2 mph - N/A   Clear
3:55 AM 77.5 °F - 70.2 °F 78% 29.82 in 7.0 mi SW 8.1 mph - N/A   Clear
4:15 AM 77.4 °F - 70.2 °F 78% 29.82 in 7.0 mi SW 9.2 mph - N/A   Clear
4:35 AM 77.9 °F - 70.5 °F 78% 29.82 in 7.0 mi WSW 9.2 mph - N/A   Scattered Clouds
4:55 AM 77.4 °F - 70.0 °F 78% 29.83 in 7.0 mi WSW 8.1 mph - N/A   Mostly Cloudy
5:15 AM 76.6 °F - 69.8 °F 79% 29.83 in 7.0 mi WSW 6.9 mph - N/A   Scattered Clouds
5:35 AM 76.1 °F - 69.6 °F 80% 29.83 in 7.0 mi WSW 8.1 mph - N/A   Clear
5:55 AM 76.1 °F - 69.8 °F 81% 29.83 in 5.0 mi WSW 8.1 mph - N/A   Haze
6:15 AM 77.2 °F - 70.7 °F 80% 29.84 in 5.0 mi WSW 6.9 mph - N/A   Haze
6:35 AM 78.3 °F - 71.1 °F 78% 29.84 in 5.0 mi West 9.2 mph - N/A   Haze
6:55 AM 78.3 °F - 70.9 °F 78% 29.84 in 5.0 mi West 6.9 mph - N/A   Haze
7:15 AM 77.9 °F - 71.1 °F 79% 29.85 in 5.0 mi Calm Calm - N/A Rain Rain
7:35 AM 75.4 °F - 70.3 °F 84% 29.86 in 1.2 mi Calm Calm - 0.33 in Rain Heavy Rain
7:55 AM 73.8 °F - 67.8 °F 82% 29.87 in 2.0 mi Calm Calm - 0.61 in Rain Heavy Rain
8:15 AM 72.7 °F - 67.1 °F 83% 29.86 in 10.0 mi ESE 6.9 mph - N/A Rain Light Rain
8:35 AM 73.4 °F - 68.2 °F 84% 29.87 in 10.0 mi SSE 3.5 mph - N/A Rain Light Rain
8:55 AM 73.4 °F - 69.1 °F 86% 29.87 in 5.0 mi SSE 5.8 mph - 0.02 in Rain Rain
9:15 AM 73.8 °F - 70.7 °F 90% 29.87 in 4.0 mi SSW 5.8 mph - N/A Rain Rain
9:35 AM 73.8 °F - 70.7 °F 90% 29.87 in 7.0 mi Calm Calm - 0.02 in Rain Light Rain
9:55 AM 74.7 °F - 71.6 °F 90% 29.87 in 7.0 mi SSW 4.6 mph - 0.02 in   Scattered Clouds
10:35 AM 75.4 °F - 72.1 °F 90% 29.89 in 7.0 mi WSW 4.6 mph - N/A   Scattered Clouds
10:55 AM 76.1 °F - 72.5 °F 89% 29.88 in 7.0 mi Calm Calm - N/A   Scattered Clouds
11:15 AM 78.4 °F - 74.7 °F 88% 29.88 in 10.0 mi SW 3.5 mph - N/A   Scattered Clouds
11:35 AM 83.1 °F 92.3 °F 77.2 °F 82% 29.88 in 7.0 mi Calm Calm - N/A   Clear
11:55 AM 86.0 °F 96.4 °F 76.5 °F 73% 29.88 in 7.0 mi South 4.6 mph - N/A   Scattered Clouds
12:15 PM 85.1 °F 94.1 °F 75.4 °F 73% 29.87 in 5.0 mi SW 3.5 mph - N/A   Haze
12:35 PM 88.3 °F 102.3 °F 78.3 °F 72% 29.87 in 5.0 mi SSW 3.5 mph - N/A   Haze
12:55 PM 89.4 °F 101.7 °F 76.6 °F 66% 29.86 in 7.0 mi West 3.5 mph - N/A   Scattered Clouds
1:15 PM 89.2 °F 100.7 °F 75.9 °F 65% 29.85 in 7.0 mi SSW 3.5 mph - N/A   Scattered Clouds
1:35 PM 91.4 °F 100.7 °F 73.9 °F 56% 29.85 in 7.0 mi Calm Calm - N/A   Scattered Clouds
1:55 PM 92.3 °F 100.9 °F 72.9 °F 53% 29.86 in 7.0 mi NNE 4.6 mph - N/A   Scattered Clouds
2:15 PM 89.8 °F 102.1 °F 76.8 °F 65% 29.87 in 5.0 mi Calm Calm - N/A   Haze
2:35 PM 87.4 °F 97.2 °F 75.2 °F 67% 29.86 in 5.0 mi SSE 3.5 mph - N/A   Haze
2:55 PM 84.9 °F 93.7 °F 75.4 °F 73% 29.85 in 7.0 mi SSE 3.5 mph - N/A   Scattered Clouds
3:15 PM 84.2 °F 92.6 °F 75.4 °F 75% 29.85 in 7.0 mi Calm Calm - N/A   Clear
3:35 PM 84.4 °F 93.1 °F 75.7 °F 75% 29.84 in 5.0 mi Calm Calm - N/A   Haze
3:55 PM 86.2 °F 96.9 °F 76.6 °F 73% 29.84 in 5.0 mi Calm Calm - N/A   Haze
4:15 PM 91.0 °F 111.4 °F 81.1 °F 73% 29.84 in 7.0 mi Calm Calm - N/A   Clear
4:35 PM 93.0 °F 110.5 °F 79.2 °F 64% 29.84 in 7.0 mi Calm Calm - N/A   Clear
4:55 PM 88.7 °F 102.2 °F 77.9 °F 70% 29.84 in 7.0 mi East 3.5 mph - N/A   Clear
5:15 PM 83.8 °F 90.4 °F 73.6 °F 71% 29.84 in 5.0 mi SE 11.5 mph - N/A   Haze
5:35 PM 80.4 °F 84.4 °F 72.0 °F 75% 29.85 in 7.0 mi SSE 5.8 mph - N/A   Clear
5:55 PM 80.6 °F 84.9 °F 72.5 °F 76% 29.85 in 5.0 mi South 4.6 mph - N/A   Haze
6:15 PM 81.0 °F 85.4 °F 72.5 °F 75% 29.86 in 7.0 mi SSW 4.6 mph - N/A   Clear
6:35 PM 79.7 °F - 71.8 °F 77% 29.86 in 5.0 mi SSW 3.5 mph - N/A   Haze
6:55 PM 78.8 °F - 72.0 °F 79% 29.87 in 4.0 mi SSW 3.5 mph - N/A   Haze
7:15 PM 78.1 °F - 72.3 °F 82% 29.89 in 5.0 mi South 4.6 mph - N/A   Haze
7:35 PM 77.7 °F - 71.8 °F 82% 29.89 in 5.0 mi South 5.8 mph - N/A   Haze
7:55 PM 76.8 °F - 71.4 °F 83% 29.90 in 4.0 mi SSW 3.5 mph - N/A   Haze
8:15 PM 75.6 °F - 70.5 °F 84% 29.90 in 4.0 mi SW 3.5 mph - N/A   Haze
8:35 PM 74.5 °F - 70.2 °F 86% 29.90 in 5.0 mi SSW 3.5 mph - N/A   Haze
8:55 PM 73.9 °F - 70.2 °F 88% 29.91 in 5.0 mi South 5.8 mph - N/A   Scattered Clouds
9:15 PM 72.5 °F - 68.5 °F 87% 29.92 in 7.0 mi South 3.5 mph - N/A   Scattered Clouds
9:35 PM 71.2 °F - 67.5 °F 88% 29.91 in 7.0 mi South 5.8 mph - N/A   Clear
9:55 PM 70.7 °F - 67.1 °F 88% 29.92 in 7.0 mi SSW 5.8 mph - N/A   Clear
10:15 PM 70.2 °F - 66.7 °F 89% 29.92 in 7.0 mi SSW 3.5 mph - N/A   Clear
10:35 PM 69.6 °F - 66.4 °F 89% 29.92 in 7.0 mi Calm Calm - N/A   Clear
10:55 PM 69.1 °F - 65.8 °F 89% 29.91 in 7.0 mi Calm Calm - N/A   Clear
11:15 PM 68.9 °F - 65.7 °F 89% 29.92 in 7.0 mi SW 3.5 mph - N/A   Clear
11:35 PM 69.1 °F - 66.2 °F 91% 29.93 in 7.0 mi Calm Calm - N/A   Clear
11:55 PM 69.1 °F - 66.2 °F 91% 29.92 in 7.0 mi Calm Calm - N/A   Clear